Hourly Data Report for October 19, 2015

All times are specified in Local Standard Time (LST). Add 1 hour to adjust for Daylight Saving Time where and when it is observed.

ST LEONARD CS
NEW BRUNSWICK

47°09'28.050" N
67°49'55.014" W
245.00 m
810I001
71019
WIY

Download Data

Hourly Data (October 2015)
Hourly Data Report for October 19, 2015
Temp Definition
°C
Dew Point Temp Definition
°C
Rel Hum Definition
%
Wind Dir Definition
10's deg

Wind Spd Definition
km/h
Visibility Definition
km
Stn Press Definition
kPa
Hmdx Definition


Wind Chill Definition


Weather Definition


TIME
00:00 -4.8 -6.7 87 32 8   99.06   -8 LegendNANA
01:00 -5.0 -6.6 88 31 10   99.12   -9 LegendNANA
02:00 -5.3 -7.0 88 29 10   99.15   -10 LegendNANA
03:00 -5.4 -6.9 89 32 10   99.17   -10 LegendNANA
04:00 -5.6 -6.6 93 30 13   99.22   -11 LegendNANA
05:00 -5.6 -7.3 88 30 14   99.27   -11 LegendNANA
06:00 -6.0 -7.4 90 28 11   99.31   -11 LegendNANA
07:00 -6.8 -8.0 91 30 8   99.35   -11 LegendNANA
08:00 -5.1 -6.9 87 29 10   99.39   -9 LegendNANA
09:00 -2.7 -6.2 77 29 13   99.41   -7 LegendNANA
10:00 -1.2 -7.4 63 29 14   99.38   -6 LegendNANA
11:00 -0.1 -10.3 46 30 14   99.36   -4 LegendNANA
12:00 0.8 -9.7 46 28 19   99.30     LegendNANA
13:00 1.5 -7.7 50 29 17   99.20     LegendNANA
14:00 2.4 -9.3 42 25 12   99.08     LegendNANA
15:00 2.8 -9.1 41 24 17   98.97     LegendNANA
16:00 3.2 -7.5 45 22 16   98.89     LegendNANA
17:00 2.1 -7.5 49 21 16   98.83     LegendNANA
18:00 1.6 -6.7 54 20 15   98.81     LegendNANA
19:00 1.3 -6.1 58 18 18   98.74     LegendNANA
20:00 1.2 -5.9 59 20 15   98.74     LegendNANA
21:00 -1.2 -1.8 96 21 13   98.74   -5 LegendNANA
22:00 -1.0 -1.6 96 18 18   98.63   -6 LegendNANA
23:00 -0.8 -1.4 95 17 13   98.58   -5 LegendNANA

Notes on Data Quality.

Legend

  • E = Estimated
  • M = Missing
  • NA = Not Available
  • ‡ = Partner data that is not subject to review by the National Climate Archives
Date modified: